TimeCDT,TemperatureF,Dew PointF,Humidity,Sea Level PressureIn,VisibilityMPH,Wind Direction,Wind SpeedMPH,Gust SpeedMPH,PrecipitationIn,Events,Conditions,WindDirDegrees,DateUTC
12:53 AM,48.0,37.0,66,29.90,10.0,North,9.2,-,N/A,,Partly Cloudy,350,2014-04-08 05:53:00
1:53 AM,46.9,37.0,68,29.91,10.0,NNW,8.1,-,N/A,,Overcast,330,2014-04-08 06:53:00
2:53 AM,44.1,35.1,71,29.90,10.0,North,5.8,-,N/A,,Partly Cloudy,350,2014-04-08 07:53:00
3:53 AM,39.9,33.1,77,29.91,10.0,North,5.8,-,N/A,,Clear,360,2014-04-08 08:53:00
4:53 AM,43.0,34.0,71,29.91,10.0,NNW,9.2,-,N/A,,Mostly Cloudy,340,2014-04-08 09:53:00
5:53 AM,45.0,34.0,65,29.94,10.0,NW,12.7,-,N/A,,Overcast,320,2014-04-08 10:53:00
6:53 AM,43.0,37.0,80,29.96,10.0,North,5.8,-,0.00,Rain,Light Rain,350,2014-04-08 11:53:00
7:53 AM,43.0,36.0,76,29.99,10.0,NNW,11.5,-,0.00,,Clear,330,2014-04-08 12:53:00
8:53 AM,46.9,36.0,66,30.00,10.0,NNW,18.4,-,N/A,,Clear,330,2014-04-08 13:53:00
9:53 AM,50.0,35.1,57,30.01,10.0,NNW,16.1,-,N/A,,Clear,340,2014-04-08 14:53:00
10:53 AM,51.1,35.1,54,30.03,10.0,NNW,19.6,-,N/A,,Mostly Cloudy,330,2014-04-08 15:53:00
11:53 AM,54.0,35.1,49,30.04,10.0,NNW,21.9,27.6,N/A,,Scattered Clouds,340,2014-04-08 16:53:00
12:53 PM,54.0,32.0,43,30.04,10.0,NNW,23.0,-,N/A,,Overcast,340,2014-04-08 17:53:00
1:53 PM,57.0,30.9,37,30.04,10.0,North,18.4,-,N/A,,Scattered Clouds,350,2014-04-08 18:53:00
2:53 PM,57.0,30.0,36,30.04,10.0,NNW,20.7,27.6,N/A,,Scattered Clouds,340,2014-04-08 19:53:00
3:53 PM,59.0,28.0,31,30.04,10.0,North,17.3,26.5,N/A,,Scattered Clouds,350,2014-04-08 20:53:00
4:53 PM,60.1,26.1,27,30.03,10.0,NNW,19.6,25.3,N/A,,Clear,340,2014-04-08 21:53:00
5:53 PM,59.0,25.0,27,30.04,10.0,NNW,20.7,-,N/A,,Partly Cloudy,330,2014-04-08 22:53:00
6:53 PM,57.0,24.1,28,30.05,10.0,NW,17.3,-,N/A,,Clear,320,2014-04-08 23:53:00
7:53 PM,50.0,26.1,39,30.07,10.0,NW,9.2,-,N/A,,Clear,320,2014-04-09 00:53:00
8:53 PM,46.9,26.1,44,30.09,10.0,NW,6.9,-,N/A,,Clear,310,2014-04-09 01:53:00
9:53 PM,46.0,24.1,42,30.11,10.0,Calm,Calm,-,N/A,,Clear,0,2014-04-09 02:53:00
10:53 PM,42.1,25.0,51,30.10,10.0,Calm,Calm,-,N/A,,Clear,0,2014-04-09 03:53:00
11:53 PM,35.1,30.0,82,30.10,10.0,South,4.6,-,N/A,,Clear,180,2014-04-09 04:53:00